Regional Weather Roundup
Issued by NWS

Home | Current Version | Previous Version | Graphics & Text | Print | Product List | Glossary On
Versions: 1 2 3 4 5 6 7 8 9 10 11 12 13 14 15 16 17 18 19 20 21 22 23 24 25 26 27 28 29 30 31 32 33 34 35 36 37 38 39 40 41 42 43 44 45 46 47 48 49 50
000
ASUS43 KDMX 290907
RWRIA

WEATHER ROUNDUP FOR IOWA
NATIONAL WEATHER SERVICE DES MOINES IA
400 AM CDT SUN MAR 29 2015

NOTE: "FAIR" INDICATES FEW OR NO CLOUDS BELOW 12,000 FEET WITH NO
SIGNIFICANT WEATHER AND/OR OBSTRUCTIONS TO VISIBILITY.

* - THESE STATIONS ARE NOT NWS STATIONS...THUS NOT UNDER NWS
QUALITY CONTROL.  THEY ALSO DO NOT REPORT WEATHER SUCH
AS PRECIPITATION OR FOG.

IAZ001>003-012>014-020>022-031>034-043>046-291000-
   NORTHWEST IOWA

CITY           SKY/WX    TMP DP  RH WIND       PRES   REMARKS
CARROLL *      MIX PCPN  39  32  75 S16       29.85F WCI  30
CHEROKEE *     CLOUDY    39  34  81 S14G24    29.80F WCI  31
DENISON *      MOCLDY    41  34  75 S18G25    29.81F
LE MARS *      CLEAR     41  36  81 S20G25    29.77F
ORANGE CITY *  CLEAR     41  34  75 S23G33    29.75F
SHELDON *      PTCLDY    41  34  75 S21G30    29.74F
SIOUX CITY     CLOUDY    44  33  65 S20G30    29.83F
SPENCER        LGT RAIN  40  32  73 S21       29.78R WCI  30
STORM LAKE *   MOCLDY    39  34  81 S23G31    29.80F WCI  29
$$

IAZ055>058-069>071-079>083-090>094-291000-
   SOUTHWEST IOWA

CITY           SKY/WX    TMP DP  RH WIND       PRES   REMARKS
ATLANTIC *     CLOUDY    41  32  70 S18G25    29.86F
AUDUBON *      LGT RAIN  41  30  65 S15       29.89R
CLARINDA *     MOCLDY    41  34  75 S13       29.93R
COUNCIL BLFS * CLOUDY    41  34  75 SE15      29.83F
CRESTON *      CLOUDY    37  32  81 S18G29    29.90F WCI  27
HARLAN  *      MIX PCPN  41  34  75 S13G23    29.89R
LAMONI         CLEAR     38  30  73 S13G20    29.95F WCI  30
RED OAK *      CLOUDY    41  34  75 S23       29.88F
SHENANDOAH *   MOCLDY    41  34  75 S10       29.90F
$$

IAZ047>049-059>061-072>074-084-291000-
   CENTRAL IOWA

CITY           SKY/WX    TMP DP  RH WIND       PRES   REMARKS
AMES           PTCLDY    35  25  66 S13       29.93F WCI  26
ANKENY *       PTCLDY    37  27  65 S9G17     29.96R WCI  31
CHARITON *     MOCLDY    36  28  75 S18       29.95F WCI  25
DES MOINES     MOCLDY    38  27  64 S15       29.95F WCI  29
GRINNELL*      CLEAR     32  23  69 S15       29.97F WCI  22
KNOXVILLE *    CLEAR     36  25  64 S15       29.93F WCI  26
MARSHALLTOWN   CLEAR     32  21  64 S16       29.95F WCI  21
PELLA *        CLEAR     34  27  75 S14       29.96F WCI  24
PERRY *        MOCLDY    39  32  75 S9G22     29.90F WCI  33
$$

IAZ004>006-015-016-023>025-035-036-291000-
   NORTH CENTRAL IOWA

CITY           SKY/WX    TMP DP  RH WIND       PRES   REMARKS
ALGONA *       MOCLDY    37  30  75 S28G37    29.82F WCI  25
CLARION *      MIX PCPN  34  27  75 S24G31    29.84F WCI  21
ESTHERVILLE    CLOUDY    35  30  82 S23G30    29.77F WCI  23
FORT DODGE *   CLOUDY    36  27  69 S17G25    29.83F WCI  25
MASON CITY     MOCLDY    34  25  69 S21G26    29.90F WCI  22
FOREST CITY *  LGT RAIN  32  27  80 SE18G24   29.83F WCI  20
IOWA FALLS *     N/A     34  23  64 S15       29.94R WCI  24
$$

IAZ007>011-017>019-026>030-037>042-050>054-066-291000-
   NORTHEAST IOWA

CITY           SKY/WX    TMP DP  RH WIND       PRES   REMARKS
CEDAR RAPIDS   CLEAR     30  20  66 S14       30.00F WCI  19
CHARLES CITY * PTCLDY    32  21  64 S23G29    29.96R WCI  19
CLINTON *      CLEAR     30  19  64 S13       30.12F WCI  20
DECORAH *      CLOUDY    32  19  59 S15G25    29.95S WCI  22
DUBUQUE        CLEAR     29  19  66 S18G26    30.03F WCI  16
MONTICELLO *   CLEAR     30  21  69 S16       30.04F WCI  19
OELWEIN *      PTCLDY    32  21  64 S20G26    29.99S WCI  20
WATERLOO       CLEAR     31  20  63 S18       29.95F WCI  19
$$

IAZ064-065-067-068-078-291000-
   EAST CENTRAL IOWA

CITY           SKY/WX    TMP DP  RH WIND       PRES   REMARKS
DAVENPORT      CLEAR     32  17  54 S22       30.09F WCI  19
IOWA CITY      CLEAR     32  20  61 SE13      30.07F WCI  22
MT. PLEASANT * CLEAR     32  21  64 S10       30.07F WCI  24
MUSCATINE *    CLEAR     34  19  55 S13G20    30.08F WCI  25
QUAD CITIES      N/A     31  18  58 SE7       30.10F WCI  24
$$

IAZ062-063-075>077-085>089-095>099-291000-
   SOUTHEAST IOWA

CITY           SKY/WX    TMP DP  RH WIND       PRES   REMARKS
BURLINGTON     PTCLDY    33  21  61 S14G23    30.09F WCI  23
FAIRFIELD *    CLEAR     34  21  60 S15       30.03F WCI  24
FORT MADISON * CLEAR     30  21  69 S10G17    30.09F WCI  21
KEOKUK *       CLEAR     34  23  64 SE12      30.07F WCI  25
OSKALOOSA *      N/A     32  23  69 SE15      29.99F WCI  22
CENTERVILLE *  CLEAR     34  27  75 SE16      29.99F WCI  23
OTTUMWA        CLEAR     34  22  61 S15       30.00F WCI  24
WASHINGTON *   CLEAR     32  21  64 S15       30.04F WCI  22
$$

ABBREVIATIONS USED IN REMARKS
   TC - TEMPERATURES IN CELSIUS
  WCI - WIND CHILL INDEX
   HX - HEAT INDEX
  VSB - VISIBILITY
$$



USA.gov is the U.S. government's official web portal to all federal, state and local government web resources and services.